Bishopton, United Kingdom

12:37 PM GMT on January 18, 2017 (GMT +0000)
Glasgow

Weather History for EGPF - December, 2011

Change the Weather History Date:

Thursday, December 8, 2011

  Actual Average Record
Temperature  
Mean Temperature 44 °F -  
Max Temperature 50 °F 43 °F 55 °F (2015)
Min Temperature 39 °F 33 °F 8 °F (2010)
Degree Days  
Heating Degree Days 20    
Moisture  
Dew Point 38 °F    
Average Humidity 82    
Maximum Humidity 94    
Minimum Humidity 57    
Precipitation  
Precipitation 0.00 in - - ()
Sea Level Pressure  
Sea Level Pressure 29.23 in    
Wind  
Wind Speed 20 mph ()    
Max Wind Speed 44 mph    
Max Gust Speed 71 mph    
Visibility 4.8 miles    
Events Rain , Thunderstorm    
Averages and records for this station are not official NWS values.
T = Trace of Precipitation, MM = Missing Value Source: Averaged Metar Reports

Daily Weather History Graph

Daily Weather History Graph

Search for Another Location

Airport or City:

Trip Planner

Search our weather history database for the weather conditions in past years. The results will help you decide how hot, cold, wet, or windy it might be!

Date:

Astronomy

Dec. 08, 2011 Rise Set
Actual Time 8:33 AM GMT 3:45 PM GMT
Civil Twilight 7:47 AM GMT 4:31 PM GMT
Nautical Twilight 6:59 AM GMT 5:19 PM GMT
Astronomical Twilight 6:13 AM GMT 6:04 PM GMT
Moon 2:19 PM GMT (12/8) 6:25 AM GMT (12/8)
Length of Visible Light 8h 43m
Length of Day
7h 11m
Waxing Gibbous, 96% of the Moon is Illuminated
Dec 8
Waxing Gibbous
Dec 10
Full
Dec 18
Last Quarter
Dec 24
New
Jan 1
First Quarter

Hourly Weather History & Observations

Time (GMT) Temp. Windchill Dew Point Humidity Pressure Visibility Wind Dir Wind Speed Gust Speed Precip Events Conditions
12:20 AM 41.0 °F 33.5 °F 35.6 °F 81% 29.77 in 6.2 mi SW 13.8 mph - N/A   Partly Cloudy
12:50 AM 41.0 °F 33.1 °F 35.6 °F 81% 29.77 in 6.2 mi SW 15.0 mph - N/A   Partly Cloudy
1:20 AM 41.0 °F 34.3 °F 37.4 °F 87% 29.74 in 6.2 mi SW 11.5 mph - N/A   Partly Cloudy
1:50 AM 39.2 °F 35.0 °F 37.4 °F 93% 29.74 in 5.0 mi WSW 5.8 mph - N/A Rain Light Rain
2:20 AM 39.2 °F 35.9 °F 37.4 °F 93% 29.71 in 6.2 mi SSE 4.6 mph - N/A Rain Light Rain
2:50 AM 41.0 °F 35.8 °F 37.4 °F 87% 29.68 in 6.2 mi South 8.1 mph - N/A Rain Light Rain
3:20 AM 41.0 °F 34.3 °F 37.4 °F 87% 29.65 in 6.2 mi South 11.5 mph - N/A Rain Light Rain
3:50 AM 41.0 °F 33.9 °F 37.4 °F 87% 29.59 in 6.2 mi South 12.7 mph - N/A Rain Rain
4:20 AM 41.0 °F 34.3 °F 37.4 °F 87% 29.56 in 5.0 mi South 11.5 mph - N/A Rain Heavy Rain
4:50 AM 39.2 °F 32.0 °F 37.4 °F 93% 29.50 in 4.3 mi SSE 11.5 mph - N/A Rain Rain
5:20 AM 39.2 °F 30.5 °F 37.4 °F 93% 29.44 in 3.1 mi SE 16.1 mph - N/A Rain Rain
5:50 AM 39.2 °F 32.0 °F 37.4 °F 93% 29.39 in 3.1 mi SE 11.5 mph - N/A Rain Rain
6:20 AM 44.6 °F 36.4 °F 42.8 °F 93% 29.30 in 4.3 mi South 20.7 mph 32.2 mph N/A Rain Heavy Rain
6:50 AM 48.2 °F - 44.6 °F 87% 29.27 in 3.7 mi SSW 29.9 mph 44.9 mph N/A Rain Rain
7:20 AM 48.2 °F - 44.6 °F 87% 29.21 in 4.3 mi SSW 31.1 mph 48.3 mph N/A Rain Rain
7:50 AM 48.2 °F - 46.4 °F 93% 29.18 in - SSW 26.5 mph 39.1 mph N/A Rain Rain
8:20 AM 48.2 °F - 46.4 °F 93% 29.12 in 1.9 mi SSW 31.1 mph 49.5 mph N/A Rain Rain
8:50 AM 50.0 °F - 46.4 °F 87% 29.09 in 1.6 mi SSW 31.1 mph 47.2 mph N/A Rain Rain
9:20 AM 50.0 °F - 46.4 °F 87% 29.03 in 5.0 mi SSW 36.8 mph 49.5 mph N/A Rain Light Rain
9:50 AM 50.0 °F - 48.2 °F 94% 28.97 in 1.2 mi SW 38.0 mph 54.1 mph N/A Rain Rain
10:20 AM 50.0 °F - 39.2 °F 66% 29.00 in 5.6 mi WSW 40.3 mph 61.0 mph N/A Rain Light Rain
10:50 AM 46.4 °F 35.8 °F 37.4 °F 71% 29.03 in 5.0 mi WSW 40.3 mph 62.1 mph N/A Rain Light Rain
11:20 AM 46.4 °F 36.4 °F 39.2 °F 76% 29.03 in 3.1 mi WSW 35.7 mph 52.9 mph N/A Rain Light Rain
11:50 AM 46.4 °F 36.5 °F 39.2 °F 76% 29.00 in 3.7 mi WSW 34.5 mph 55.2 mph N/A Rain Light Rain
12:20 PM 46.4 °F 36.1 °F 37.4 °F 71% 29.00 in 4.3 mi WSW 38.0 mph 55.2 mph N/A Rain Light Rain
12:50 PM 44.6 °F 34.1 °F 37.4 °F 76% 29.00 in 4.3 mi WSW 34.5 mph 48.3 mph N/A Rain Light Rain
1:20 PM 44.6 °F 32.9 °F 35.6 °F 71% 29.00 in 3.7 mi WSW 43.7 mph 56.4 mph N/A Rain , Thunderstorm Light Rain
1:50 PM 46.4 °F 35.6 °F 33.8 °F 62% 29.00 in 4.3 mi West 42.6 mph 71.3 mph N/A Rain Light Rain
2:20 PM 44.6 °F 33.6 °F 33.8 °F 66% 29.00 in 5.6 mi WSW 38.0 mph 56.4 mph N/A Rain Light Rain Showers
2:50 PM 46.4 °F 35.7 °F 32.0 °F 57% 28.97 in 6.2 mi West 41.4 mph 61.0 mph N/A Rain Light Rain Showers
3:20 PM 42.8 °F 31.4 °F 35.6 °F 76% 29.00 in 5.6 mi West 35.7 mph 47.2 mph N/A Rain Light Rain Showers
3:50 PM 44.6 °F 33.1 °F 32.0 °F 61% 28.97 in 6.2 mi West 42.6 mph 70.2 mph N/A   Mostly Cloudy
4:20 PM 44.6 °F 33.6 °F 33.8 °F 66% 29.00 in 5.6 mi West 38.0 mph 55.2 mph N/A Rain Light Rain Showers
4:50 PM 42.8 °F 31.0 °F 33.8 °F 70% 29.00 in 3.1 mi West 39.1 mph 55.2 mph N/A Rain , Thunderstorm Rain Showers
5:20 PM 42.8 °F 31.3 °F 35.6 °F 76% 29.00 in 6.2 mi West 36.8 mph 54.1 mph N/A Rain Light Rain
5:50 PM 41.0 °F 28.8 °F 35.6 °F 81% 29.03 in 2.5 mi West 36.8 mph 51.8 mph N/A Rain , Thunderstorm Rain Showers
6:20 PM 41.0 °F 29.3 °F 35.6 °F 81% 29.06 in 4.3 mi West 33.4 mph - N/A Rain Light Rain Showers
6:50 PM 41.0 °F 29.3 °F 35.6 °F 81% 29.09 in 5.6 mi West 33.4 mph 49.5 mph N/A Rain Light Rain Showers
7:20 PM 41.0 °F 30.5 °F 35.6 °F 81% 29.09 in 5.6 mi West 26.5 mph 40.3 mph N/A Rain Light Rain Showers
7:50 PM 39.2 °F 27.6 °F 35.6 °F 87% 29.12 in 3.1 mi West 28.8 mph 42.6 mph N/A Rain Rain Showers
8:20 PM 39.2 °F 28.0 °F 35.6 °F 87% 29.15 in 5.6 mi West 26.5 mph 41.4 mph N/A Rain Light Rain Showers
8:50 PM 39.2 °F 28.3 °F 35.6 °F 87% 29.18 in 5.6 mi West 25.3 mph - N/A Rain Light Rain Showers
9:20 PM 39.2 °F 30.8 °F 35.6 °F 87% 29.21 in 6.2 mi West 15.0 mph - N/A Rain Light Rain
9:50 PM 41.0 °F 32.8 °F 35.6 °F 81% 29.21 in 6.2 mi West 16.1 mph - N/A   Mostly Cloudy
10:20 PM 39.2 °F 30.8 °F 33.8 °F 81% 29.27 in 6.2 mi NW 15.0 mph - N/A Rain Light Rain
10:50 PM 39.2 °F 33.6 °F 33.8 °F 81% 29.27 in 6.2 mi WNW 8.1 mph - N/A   Mostly Cloudy
11:20 PM 39.2 °F 30.5 °F 35.6 °F 87% 29.30 in 4.3 mi WNW 16.1 mph - N/A Rain Light Rain
11:50 PM 39.2 °F 35.0 °F 35.6 °F 87% 29.33 in 6.2 mi West 5.8 mph - N/A   Overcast